Weather in Bol'shoye Dolzhenkovo

Russia / Kursk Oblast     51°42′08″N   35°50′20″E
temp.,
°C
wind,
m/s
gust,
m/s
humid.,
%
clouds,
%
prec.,
mm/h
press.,
hPa
HPBL,
m
6 august, fri
fri600:00+18se3582100 1.0 101283
03:00+17se488296 1.1 1011153
06:00+17se3117664 0.1 1011223
09:00+23sse585593 0.1 1010330
12:00+29sse563990 0.0 10091174
15:00+32sse473219 0.0 10072537
18:00+30se364170 0.0 1005155
21:00+25sse4105296 0.3 1005165
7 august, sat
sat700:00+19nw3684100 0.9 1008107
03:00+18ne359297 0.9 100895
06:00+18se41188100 0.8 1008283
09:00+22sse61376100 1.4 1008617
12:00+27s5752100 0.0 10081505
15:00+28ssw3549100 0.0 10081574
18:00+25wsw1367100 0.0 1009261
21:00+21nw348295 0.0 101076
8 august, sun
sun800:00+18nw3890100 3.2 1013198
03:00+17n3885100 4.3 1014199
06:00+16nne3884100 0.0 1014184
09:00+19n4768100 0.0 1015336
12:00+23n674947 0.0 1015723
15:00+26ne3445100 0.0 1015964
18:00+26n3453100 0.0 1015511
21:00+21n356457 0.5 101661
9 august, mon
mon900:00+19ne36705 0.1 101778
03:00+18nne35777 0.1 101770
06:00+18ne477863 0.0 1017136
09:00+24ne455897 0.0 1017272
12:00+27ene354452 0.0 1017725
15:00+31ne343290 0.0 10162451
18:00+26ese4848100 0.0 1016409
21:00+21ese3857100 0.0 1018227
10 august, tue
tue1000:00+21ne2258100 0.0 101728
03:00+20e2464100 0.0 1017102
06:00+19ne41080100 0.0 1016336
09:00+21ene6771100 0.0 1016613
12:00+19ene5683100 0.1 1016556
15:00+18ne4692100 2.4 1016395
18:00+19nne5788100 1.6 1015322
21:00+18nne499494 1.6 1014254